Naples, Italy

5:27 AM CEST on May 28, 2017 (GMT +0200)
Capodichino Mil

Weather History for LIRN - July, 2012

Change the Weather History Date:

Sunday, July 22, 2012

  Actual Average Record
Temperature  
Mean Temperature 81 °F -  
Max Temperature 89 °F 85 °F 95 °F (2007)
Min Temperature 73 °F 64 °F 62 °F (1997)
Cooling Degree Days 16    
Growing Degree Days 31 (Base 50)    
Moisture  
Dew Point 62 °F    
Average Humidity 55    
Maximum Humidity 83    
Minimum Humidity 35    
Precipitation  
Precipitation 0.00 in 0.05 in - ()
Sea Level Pressure  
Sea Level Pressure 29.85 in    
Wind  
Wind Speed 4 mph ()    
Max Wind Speed 12 mph    
Max Gust Speed -    
Visibility 6.1 miles    
Events      
Averages and records for this station are not official NWS values.
T = Trace of Precipitation, MM = Missing Value Source: Averaged Metar Reports

Daily Weather History Graph

Daily Weather History Graph

Search for Another Location

Airport or City:

Trip Planner

Search our weather history database for the weather conditions in past years. The results will help you decide how hot, cold, wet, or windy it might be!

Date:

Astronomy

Jul. 22, 2012 Rise Set
Actual Time 5:50 AM CEST 8:27 PM CEST
Civil Twilight 5:18 AM CEST 8:59 PM CEST
Nautical Twilight 4:38 AM CEST 9:39 PM CEST
Astronomical Twilight 3:53 AM CEST 10:23 PM CEST
Moon 9:18 AM CEST (7/22) 9:59 PM CEST (7/22)
Length of Visible Light 15h 41m
Length of Day
14h 37m
Waxing Crescent, 11% of the Moon is Illuminated
Jul 22
Waxing Crescent
Jul 26
First Quarter
Aug 2
Full
Aug 9
Last Quarter
Aug 17
New

Hourly Weather History & Observations

Time (CEST) Temp. Heat Index Dew Point Humidity Pressure Visibility Wind Dir Wind Speed Gust Speed Precip Events Conditions
12:20 AM 77.0 °F - 69.8 °F 78% 29.92 in - Variable 1.2 mph - N/A   Clear
12:50 AM 75.2 °F - 62.6 °F 65% 29.92 in - Variable 1.2 mph - N/A   Clear
1:20 AM 75.2 °F - 64.4 °F 69% 29.92 in 6.2 mi Calm Calm - N/A   Partly Cloudy
1:50 AM 75.2 °F - 69.8 °F 83% 29.92 in 6.2 mi Calm Calm - N/A   Partly Cloudy
2:20 AM 75.2 °F - 69.8 °F 83% 29.92 in 5.6 mi Calm Calm - N/A   Scattered Clouds
2:50 AM 75.2 °F - 60.8 °F 61% 29.89 in 5.6 mi Variable 2.3 mph - N/A   Partly Cloudy
3:20 AM 75.2 °F - 60.8 °F 61% 29.89 in 5.6 mi Variable 2.3 mph - N/A   Partly Cloudy
3:50 AM 73.4 °F - 59.0 °F 61% 29.89 in 5.6 mi NE 3.5 mph - N/A   Partly Cloudy
4:20 AM 73.4 °F - 59.0 °F 61% 29.89 in 5.6 mi ENE 3.5 mph - N/A   Partly Cloudy
4:50 AM 73.4 °F - 60.8 °F 65% 29.89 in 5.0 mi ENE 3.5 mph - N/A   Unknown
5:20 AM 73.4 °F - 62.6 °F 69% 29.86 in 5.0 mi NE 2.3 mph - N/A   Unknown
5:50 AM 75.2 °F - 62.6 °F 65% 29.86 in 6.2 mi Variable 1.2 mph - N/A   Scattered Clouds
6:50 AM 75.2 °F - 64.4 °F 69% 29.86 in - WNW 2.3 mph - N/A   Clear
7:20 AM 77.0 °F - 64.4 °F 65% 29.86 in - NNW 2.3 mph - N/A   Clear
7:50 AM 78.8 °F - 64.4 °F 61% 29.86 in 6.2 mi North 3.5 mph - N/A   Partly Cloudy
8:20 AM 78.8 °F - 62.6 °F 57% 29.86 in 6.2 mi North 3.5 mph - N/A   Scattered Clouds
8:50 AM 80.6 °F 82.3 °F 64.4 °F 58% 29.86 in 6.2 mi North 3.5 mph - N/A   Partly Cloudy
9:20 AM 80.6 °F 82.3 °F 64.4 °F 58% 29.86 in 6.2 mi Variable 3.5 mph - N/A   Partly Cloudy
9:50 AM 80.6 °F 82.3 °F 64.4 °F 58% 29.86 in 6.2 mi Variable 2.3 mph - N/A   Partly Cloudy
10:20 AM 84.2 °F 85.6 °F 64.4 °F 51% 29.86 in 6.2 mi Variable 3.5 mph - N/A   Partly Cloudy
10:50 AM 84.2 °F 85.6 °F 64.4 °F 51% 29.86 in 6.2 mi South 5.8 mph - N/A   Partly Cloudy
11:20 AM 84.2 °F 85.6 °F 64.4 °F 51% 29.86 in 6.2 mi South 5.8 mph - N/A   Scattered Clouds
11:50 AM 84.2 °F 85.6 °F 64.4 °F 51% 29.86 in 6.2 mi South 6.9 mph - N/A   Scattered Clouds
12:20 PM 86.0 °F 87.3 °F 64.4 °F 48% 29.86 in 6.2 mi South 8.1 mph - N/A   Scattered Clouds
12:50 PM 86.0 °F 86.6 °F 62.6 °F 45% 29.86 in 6.2 mi South 6.9 mph - N/A   Scattered Clouds
1:20 PM 87.8 °F 89.4 °F 64.4 °F 46% 29.83 in 6.2 mi Variable 5.8 mph - N/A   Partly Cloudy
1:50 PM 87.8 °F 88.5 °F 62.6 °F 43% 29.83 in 6.2 mi South 6.9 mph - N/A   Partly Cloudy
2:20 PM 89.6 °F 88.9 °F 59.0 °F 36% 29.83 in 6.2 mi Variable 5.8 mph - N/A   Partly Cloudy
2:50 PM 89.6 °F 89.5 °F 60.8 °F 38% 29.80 in 6.2 mi South 8.1 mph - N/A   Partly Cloudy
3:20 PM 87.8 °F 86.5 °F 57.2 °F 35% 29.80 in 6.2 mi South 9.2 mph - N/A   Partly Cloudy
3:50 PM 87.8 °F 90.4 °F 66.2 °F 49% 29.80 in 6.2 mi Variable 6.9 mph - N/A   Partly Cloudy
4:20 PM 89.6 °F 88.9 °F 59.0 °F 36% 29.80 in - SSW 5.8 mph - N/A   Clear
4:50 PM 87.8 °F 89.4 °F 64.4 °F 46% 29.80 in - WNW 6.9 mph - N/A   Clear
5:20 PM 86.0 °F 86.6 °F 62.6 °F 45% 29.80 in 6.2 mi WNW 10.4 mph - N/A   Scattered Clouds
5:50 PM 84.2 °F 85.0 °F 62.6 °F 48% 29.80 in - WNW 9.2 mph - N/A   Clear
6:20 PM 84.2 °F 84.4 °F 60.8 °F 45% 29.80 in 6.2 mi West 8.1 mph - N/A   Partly Cloudy
6:50 PM 82.4 °F 82.9 °F 60.8 °F 48% 29.80 in 6.2 mi WNW 9.2 mph - N/A   Partly Cloudy
7:20 PM 82.4 °F 82.9 °F 60.8 °F 48% 29.80 in 6.2 mi WNW 9.2 mph - N/A   Scattered Clouds
7:50 PM 80.6 °F 81.1 °F 59.0 °F 48% 29.83 in 6.2 mi WNW 9.2 mph - N/A   Scattered Clouds
8:20 PM 80.6 °F 81.1 °F 59.0 °F 48% 29.83 in 6.2 mi NW 8.1 mph - N/A   Scattered Clouds
8:50 PM 80.6 °F 81.1 °F 59.0 °F 48% 29.83 in 6.2 mi NW 6.9 mph - N/A   Scattered Clouds
9:20 PM 78.8 °F - 60.8 °F 54% 29.83 in 6.2 mi East 4.6 mph - N/A   Scattered Clouds
9:50 PM 78.8 °F - 60.8 °F 54% 29.83 in 6.2 mi East 5.8 mph - N/A   Partly Cloudy
10:20 PM 78.8 °F - 59.0 °F 51% 29.83 in 6.2 mi ENE 8.1 mph - N/A   Partly Cloudy
10:50 PM 78.8 °F - 59.0 °F 51% 29.83 in 6.2 mi ENE 6.9 mph - N/A   Scattered Clouds
11:20 PM 77.0 °F - 59.0 °F 54% 29.83 in 6.2 mi NE 9.2 mph - N/A   Scattered Clouds
11:50 PM 77.0 °F - 59.0 °F 54% 29.80 in 6.2 mi ENE 11.5 mph - N/A   Scattered Clouds